Showing default

UKUBE 1, 40074

Orbit data source: Space-Track

UKUBE 1, 40074 is a payload satellite owned by UKSA (UK) in SSO that was launched on Tue, 08 Jul 2014 UTC via a SOYUZ-2-1B launch vehicle from the Tyuratam Missile And Space Complex (TTMTR). Payloads include a variety of satellites, spacecraft, and rockets equipped with specific instruments for various scientific and technological missions. These include communications satellites like Starlink; space stations such as the ISS; scientific satellites like the Hubble; Earth observation satellites from companies like Planet Labs, Umbra, and HawkEye 360; GPS; miniature CubeSats for education and research; and military/defense satellites.

Loading next visibility...
UKUBE 1 details
Identifier
40074, 2014-037F
Orbit
SSO
Last TLE update9 hours ago
Origin
Flag of UKUKSA (UK)
ManufacturerClydeSpace
MissionOperational Commercial Technology
Bus & MotorCUBESAT 3U, Unknown motor
Mass4 kg wet, 4 kg dry
Launch date (UTC)
2014-07-08 (10 years ago)
Launch vehicle
SOYUZ-2-1B
Launch site
Tyuratam Missile And Space Complex (TTMTR)
Object type
Payload
Rocket body
Debris
Shape & HBRBox + 1 Pan, 0.4 m
Radar Cross Section0.038 m², Medium (>0.1 m² and < 1m²)

Expand to show TLE details & history

TLE from 9 hours ago
0 UKUBE 1
1 40074U 14037F   24361.07491560  .00017345  00000-0  13883-2 0  9993
2 40074  98.3653 303.8045 0003217 100.4664 259.6920 15.00248534567483
Epoch: 2024-12-26T01:47Z
Definitive object data (Epoch: 2024-12-26T01:47:52.707Z)
Latitude-0.00006°
Longitude-178.22463°
Altitude569.564 km
Speed7.576 km/s
True Right ascension20h 15m 13s
True Declination0° 00' 00"
Sunlit
Object was in daylight at TLE epoch
Visualization TLE readout
Latitude-79.04069°
Longitude-128.76434°
Altitude596.258 km
Speed7.559 km/s
Apparent Right ascension22h 38m 04s
Apparent Declination-60° 26' 19"
Sunlit
Object is in daylight
Visualization observer readout
Local Sidereal Time10:23:17
Azimuth185.177° SSW
Elevation-69.349°
Doppler factor1
Orbital elements
Apogee altitude565.398 km
Perigee altitude560.932 km
Semi-major axis6,941.302 km
Eccentricity0.0003217
Inclination98.3653°
RAAN303.8045°
Arg. of periapsis100.4664°
True anomaly259.65573°
Mean anomaly259.692°
Eccentric anomaly259.67387°
Mean motion3.75303 °/min
BSTAR0.0013883
Orbital period95.92 mins
Loading maneuver chart data...
Loading historical data...
Loading historical data...
Loading historical data...
Loading historical data...
Loading historical data...
Loading historical data...
Loading historical data...

UKUBE 1 Visibility forecast

Observer location: undefined°, undefined

Span
Click to sort rows by Start time (UTC) header in descending order
Start Az.
Max El. time (UTC)
Max El. Az.
Max El.
End time (UTC)
End Az.
5 mins2024-12-26 19:33:00.342Z117.059° SE2024-12-26 19:36:00.342Z65.576° ENE20.65°2024-12-26 19:38:00.342Z27.881° NE
5 mins2024-12-26 21:09:00.342Z224.091° SW2024-12-26 21:11:00.342Z270.144° WNW23.869°2024-12-26 21:14:00.342Z320.351° NNW
5 mins2024-12-27 08:48:00.342Z45.896° ENE2024-12-27 08:50:00.342Z92.342° ESE28.97°2024-12-27 08:53:00.342Z158.014° S
|